RH
14 13 13 13 12 11 9 7 6 7 8 9 8 8 8 9 12 17 27 35 37 34 33 33 30 27 25 24 22 19 13 10 10 9 7 6 7 7 7 9 14 15 12 10 9 10 8 6 8 8 10 20 30 31 27 28 29 24 19 20 21 19 17 15 13 12 11 11 9 8 9 9 17 33 43 45 50 62 68 70 72 76 83 89 97 101 98 98
13 13 13 13 13 13 12 11 9 8 8 9 10 9 9 8 7 11 17 28 36 37 35 35 33 31 29 28 26 22 17 14 11 8 8 9 8 8 7 8 13 15 12 8 7 8 7 7 8 9 18 29 31 29 26 25 25 21 19 20 19 17 14 11 11 11 9 10 9 7 8 10 13 23 38 50 62 75 86 90 87 92 98 97 99 100 99 98
13 13 12 12 12 12 12 13 12 11 9 9 10 11 11 9 8 8 9 17 28 35 37 35 35 33 31 30 28 26 21 15 14 15 18 18 15 10 7 7 10 12 10 8 8 6 7 9 8 12 25 32 28 27 26 22 21 18 17 19 17 14 12 10 10 9 9 8 8 9 6 8 8 14 36 54 66 80 92 94 94 100 100 99 100 99 99 95
12 12 12 12 11 11 12 11 12 13 12 10 10 11 12 12 10 8 7 9 17 29 35 36 36 33 32 31 30 29 22 20 26 27 25 24 21 15 8 8 10 11 9 9 8 6 10 15 12 15 27 31 26 26 26 23 19 15 15 18 15 12 12 11 10 9 9 8 8 9 7 9 5 11 37 56 68 82 91 84 81 95 101 99 100 100 97 92
12 12 11 11 11 11 11 11 11 11 12 12 11 11 12 14 14 12 10 7 8 16 27 34 35 35 34 32 31 30 23 27 37 34 29 26 20 15 11 9 11 11 9 10 9 8 16 23 21 20 26 29 28 28 27 24 21 16 14 14 12 11 12 9 9 9 8 9 9 8 7 8 5 8 24 44 61 74 84 77 70 88 99 96 98 97 92 86
12 11 11 11 10 10 10 10 10 10 11 11 12 12 12 14 15 15 13 11 9 8 16 25 32 36 35 34 33 30 27 24 26 28 27 26 22 17 14 10 10 10 9 11 7 10 21 27 26 23 25 27 30 31 27 23 20 18 15 13 11 10 11 10 9 9 9 9 8 9 7 7 7 7 13 28 45 59 73 75 74 89 92 87 90 91 88 84
11 11 11 11 10 10 10 10 10 10 10 9 11 11 12 13 14 17 16 15 13 9 10 13 23 31 31 34 30 30 35 25 18 22 20 23 24 18 17 13 10 8 7 10 6 11 23 26 24 22 24 27 28 27 25 21 17 17 15 12 10 9 9 9 9 8 9 9 8 8 6 7 6 7 19 30 41 60 76 82 87 93 87 80 83 86 85 83
12 11 11 11 10 10 10 10 9 9 9 9 10 10 11 12 13 16 18 19 17 13 11 9 14 19 23 29 28 31 32 22 22 29 24 25 27 23 25 19 12 9 7 8 6 13 24 24 23 22 24 26 25 23 21 20 17 15 14 11 10 9 8 7 8 9 9 9 8 8 6 8 6 6 23 39 53 72 85 91 91 88 83 79 78 80 82 83
12 11 11 11 10 10 10 10 9 9 9 9 9 9 10 10 12 13 16 20 20 16 12 11 10 12 17 19 26 34 21 17 30 35 31 31 31 30 30 23 17 12 7 6 7 14 22 22 22 22 23 22 20 19 17 18 18 14 12 11 9 8 8 7 7 7 8 8 6 8 8 7 6 6 18 42 65 79 85 90 87 83 82 77 73 74 76 81
12 11 11 11 11 10 10 9 9 9 9 9 9 9 9 9 10 11 13 17 21 22 17 15 11 9 14 15 30 35 18 25 36 32 33 31 30 31 27 22 20 15 8 6 8 15 21 21 21 21 21 18 16 16 13 15 15 10 9 9 9 8 7 7 7 7 7 8 6 8 9 7 6 5 15 39 67 81 87 92 87 82 80 74 72 73 77 81
12 12 11 11 11 11 10 10 9 9 9 8 8 8 9 8 9 9 11 13 17 23 23 22 18 14 14 16 32 29 13 27 36 32 32 29 31 31 25 21 19 18 10 5 12 19 21 20 20 22 20 14 12 12 10 11 11 9 9 9 8 8 8 7 7 8 7 8 7 7 7 7 6 5 14 35 63 79 86 93 89 81 79 74 71 75 82 84
11 11 11 11 11 11 10 11 10 10 9 9 9 8 8 8 8 9 9 10 13 17 22 26 26 22 19 18 21 13 7 20 30 33 30 28 33 29 23 21 19 22 12 5 15 21 20 19 20 24 21 14 12 12 10 10 9 10 10 10 10 9 9 9 7 7 8 8 6 7 9 10 8 6 12 31 59 78 86 92 91 84 78 72 70 74 81 84
11 10 10 10 10 10 10 10 10 10 10 9 9 7 8 8 8 8 8 10 10 11 15 20 23 23 29 29 16 6 10 15 18 22 19 21 32 30 25 23 20 22 16 9 13 17 19 20 22 25 22 16 13 11 10 10 10 12 11 10 11 11 12 10 8 7 8 8 6 7 13 17 12 5 8 22 51 77 89 92 92 90 82 71 68 73 81 85
10 9 10 9 9 9 9 9 9 9 10 9 10 9 8 7 7 8 8 8 8 10 11 13 18 23 35 32 11 9 18 17 15 14 13 16 27 31 26 25 22 21 21 15 11 14 18 19 20 21 18 15 12 10 12 12 12 13 13 14 13 14 18 13 9 9 8 9 6 7 16 19 13 8 6 15 41 69 85 89 90 92 84 72 74 81 86 90
10 10 10 9 9 9 8 9 8 8 8 9 9 9 9 8 8 6 7 9 8 9 8 11 20 29 47 37 11 17 23 16 16 15 16 19 26 31 27 25 23 22 23 21 18 18 18 19 18 18 17 13 11 12 15 15 17 16 17 26 22 14 19 15 9 10 9 9 7 7 16 16 11 9 4 9 29 55 78 88 88 90 84 78 86 92 92 94
12 10 10 10 9 9 9 8 8 8 7 8 8 9 10 8 7 6 7 8 7 11 11 22 40 50 61 45 20 25 25 13 12 15 20 21 25 31 28 24 23 24 24 23 23 21 20 19 17 17 15 14 14 14 16 20 27 27 22 31 29 18 19 15 9 11 8 9 8 8 14 15 12 9 5 5 16 45 76 87 87 88 87 87 94 96 93 94
14 12 11 10 10 9 9 8 8 7 6 7 7 8 9 8 9 7 7 7 10 19 19 32 60 66 54 34 20 23 23 18 13 14 19 20 25 30 29 26 23 23 23 23 23 21 21 18 16 22 20 17 19 17 20 24 31 34 27 28 29 20 18 15 12 11 7 9 9 8 12 14 15 10 6 3 10 44 76 82 85 86 87 91 94 94 91 88
15 14 12 11 10 9 9 9 8 7 7 6 6 7 8 7 7 5 11 21 29 41 43 47 63 60 40 26 22 21 23 26 21 16 18 18 22 26 27 27 25 24 22 23 23 20 20 16 16 27 26 20 20 20 24 25 26 32 29 30 30 21 17 16 12 9 8 10 10 10 11 11 13 10 7 5 8 44 75 77 80 84 89 94 96 97 91 87
16 15 13 11 11 10 9 9 8 7 6 5 6 7 7 8 13 25 44 55 56 60 58 56 55 43 30 25 24 25 25 28 27 24 21 18 19 20 21 23 24 24 21 24 24 18 18 19 18 24 27 25 24 21 20 21 22 25 24 27 28 21 18 14 10 9 7 9 10 11 12 10 10 9 10 7 4 34 67 73 78 86 93 96 98 101 96 96
16 15 13 12 11 10 9 9 8 7 6 7 10 11 9 9 20 45 66 63 51 43 36 37 40 35 29 23 22 25 25 23 25 27 24 20 20 18 16 18 21 23 23 26 26 18 17 24 26 25 28 29 30 28 23 20 20 21 20 22 21 19 18 14 11 10 7 9 11 10 12 11 10 10 11 8 13 45 69 71 80 90 95 97 99 100 99 101
16 14 13 12 10 9 9 9 8 7 7 12 20 23 19 13 16 31 41 35 27 25 23 23 27 30 26 20 16 20 25 24 23 26 25 22 20 18 17 18 22 27 26 23 23 19 18 28 30 25 28 30 31 35 34 29 24 23 22 22 22 20 19 14 12 12 9 11 13 11 12 10 10 11 10 8 23 60 74 70 81 89 93 97 98 101 99 98
13 12 11 9 9 8 8 8 7 6 9 20 32 32 27 24 24 26 28 27 25 25 26 23 23 25 21 17 13 18 32 34 27 24 23 23 20 18 19 21 24 28 26 22 22 23 24 30 27 23 27 30 32 36 38 37 32 29 26 25 27 23 19 18 18 17 13 15 17 14 12 11 11 11 13 10 20 58 72 65 76 87 92 96 97 101 98 94
10 10 9 8 8 6 7 7 7 7 11 27 38 30 27 32 34 37 40 39 33 27 25 25 25 24 21 18 12 19 37 38 30 25 21 20 18 16 21 24 25 24 23 24 25 27 29 27 21 20 25 29 33 33 36 39 38 37 34 31 30 22 19 22 24 21 17 19 19 16 14 14 13 10 13 10 16 55 73 63 73 82 87 94 95 96 94 96
9 8 7 7 6 6 8 6 5 8 19 37 38 25 29 36 34 39 44 42 38 29 21 18 20 20 17 15 13 22 35 32 29 27 20 18 16 17 21 24 25 23 21 22 24 26 24 19 15 19 25 28 29 30 35 39 38 40 38 30 25 21 21 23 25 24 23 26 25 20 14 17 26 18 13 15 22 56 75 69 76 83 86 92 94 95 96 98
8 7 7 6 6 7 7 5 8 16 29 42 34 19 27 36 33 34 39 51 55 40 25 18 20 18 11 13 17 21 29 28 25 24 20 17 17 20 21 20 22 24 22 19 21 24 20 16 15 18 23 24 25 28 33 39 38 38 39 34 25 23 25 25 24 25 26 30 30 22 11 24 47 34 16 20 31 56 75 75 79 86 89 91 95 99 98 99
7 7 6 5 7 7 5 7 11 13 17 24 22 16 23 33 35 31 44 72 76 52 34 24 21 18 12 17 19 20 28 27 19 19 21 18 16 20 22 20 19 20 19 16 18 20 16 15 15 20 23 20 23 24 25 35 37 36 41 38 27 23 26 27 24 24 27 31 31 30 26 34 46 36 26 25 26 46 68 73 79 86 89 92 96 100 99 99
9 8 6 6 6 7 7 6 7 11 16 20 16 10 18 31 30 26 48 73 65 47 37 25 19 18 15 15 15 22 31 26 17 18 19 18 18 19 22 23 18 15 14 12 16 18 15 16 17 21 23 22 25 22 22 30 32 39 45 34 22 20 22 25 23 22 29 32 32 40 42 37 37 37 38 29 21 42 62 66 80 87 89 95 97 99 100 98
11 8 7 6 6 9 9 6 9 25 38 34 17 7 20 31 24 31 62 64 36 27 29 21 19 17 13 14 15 20 25 21 21 21 16 18 19 18 22 22 16 15 13 12 20 23 20 18 17 20 24 25 24 19 22 27 26 38 40 26 19 19 20 23 21 22 30 30 34 47 41 31 45 54 44 28 24 47 70 76 85 91 92 97 100 100 100 98
11 10 9 5 6 8 9 7 10 32 51 41 21 16 21 23 22 43 73 61 29 21 21 18 22 19 14 16 16 17 18 17 21 20 16 18 18 18 22 20 16 16 13 14 22 25 21 17 13 16 21 24 22 17 20 25 25 29 26 20 18 17 18 19 16 21 27 26 34 52 41 26 50 67 48 29 24 47 82 92 89 92 96 98 101 100 99 101
11 11 8 5 6 7 10 9 7 29 50 40 27 23 16 22 46 68 71 54 35 23 19 21 24 21 18 18 18 18 17 17 17 17 17 18 18 17 18 17 16 18 20 19 21 21 15 13 13 13 15 19 20 19 19 20 21 20 19 17 15 18 22 22 26 27 26 34 45 56 44 23 40 63 53 34 29 54 91 98 91 94 98 99 100 99 100 100
10 9 9 8 7 7 10 9 14 35 47 39 30 21 15 30 65 84 63 41 38 26 19 24 23 22 22 19 21 21 18 19 17 17 22 22 21 21 21 22 22 24 30 25 22 24 16 12 15 12 11 13 15 17 16 16 16 14 16 15 18 36 39 36 40 26 23 48 59 54 40 24 34 52 54 47 45 68 93 94 94 99 99 100 100 99 100 97
9 11 13 9 5 8 12 12 24 40 45 42 29 21 35 44 59 78 61 42 46 34 20 21 18 21 26 23 23 23 19 22 19 18 24 26 28 28 26 34 35 30 39 39 31 29 24 19 16 12 11 11 13 18 16 16 15 11 17 20 23 37 40 46 52 36 36 52 51 45 32 27 44 49 49 55 55 67 84 86 92 99 99 100 100 99 100 93
13 15 10 6 11 22 27 21 21 33 46 45 26 32 61 63 57 67 54 40 43 31 18 19 14 15 26 29 26 23 23 25 22 20 23 25 32 32 24 32 33 27 41 48 35 26 26 25 18 12 13 11 13 20 19 21 20 13 18 24 30 39 37 45 54 45 41 39 38 42 26 27 58 56 48 60 64 69 79 82 90 98 100 100 99 98 92 80
18 13 5 15 31 34 33 24 13 25 40 34 33 52 62 55 59 64 49 36 32 23 17 18 13 10 20 27 25 24 26 25 20 18 23 28 34 38 32 25 24 24 29 33 34 32 29 32 28 17 15 14 13 16 17 24 24 18 20 22 32 49 47 43 49 44 40 40 42 39 22 34 69 71 59 63 67 71 77 83 93 98 98 97 95 91 83 72
18 11 8 31 51 41 28 23 18 24 27 24 47 71 61 53 64 63 50 36 24 19 17 13 13 14 20 23 23 26 26 31 36 26 24 33 36 40 38 25 23 25 23 31 42 34 23 32 33 18 13 14 12 13 12 16 22 23 24 21 23 38 45 45 55 59 53 48 44 38 38 52 67 68 65 65 69 74 81 90 98 99 96 93 93 91 87 81
18 10 9 33 61 57 34 21 23 29 32 37 55 68 66 65 59 46 37 27 19 19 18 15 17 19 25 25 25 31 31 48 66 46 29 33 32 33 32 23 23 20 21 41 48 30 21 32 31 16 14 14 9 15 12 9 27 35 25 21 23 27 33 38 49 58 51 42 46 56 60 58 59 64 66 69 78 83 87 93 96 98 97 93 96 95 93 93
27 23 23 37 59 67 51 32 30 34 45 64 72 71 69 58 40 31 26 21 21 20 16 21 24 21 25 26 25 32 36 48 61 51 44 46 43 43 36 26 24 19 18 27 33 32 27 29 31 18 15 17 10 11 13 8 22 32 21 20 24 23 31 46 55 56 46 42 56 68 66 61 71 80 77 79 89 90 91 93 93 97 97 95 98 96 93 94
51 49 44 47 54 62 63 54 45 40 51 80 92 83 69 48 30 26 23 20 23 19 15 24 27 21 21 23 24 28 32 42 49 49 56 58 53 51 45 38 33 26 23 18 24 38 30 26 40 30 16 23 18 14 24 22 14 15 18 22 27 32 41 49 51 50 47 46 50 60 68 71 75 79 78 84 93 97 96 95 94 95 95 96 99 98 95 92
61 61 52 51 52 56 62 64 59 53 64 89 94 75 57 44 32 25 23 21 20 20 20 21 23 22 19 21 24 22 26 42 50 46 50 57 55 49 47 48 39 29 28 23 24 37 32 26 44 44 23 22 30 31 35 36 26 19 20 22 31 52 59 47 43 52 59 58 52 54 67 77 80 79 76 77 87 97 98 96 96 95 96 99 100 99 99 96
50 62 62 57 55 56 61 67 67 63 75 92 89 68 51 42 34 28 27 24 19 21 22 17 17 20 18 18 22 22 25 43 53 46 47 59 57 49 48 48 43 37 33 31 34 41 36 29 44 55 33 22 42 46 29 31 36 30 30 32 31 42 46 39 42 49 54 65 65 56 59 74 86 87 81 80 87 93 95 95 96 98 99 101 100 99 100 99
51 64 65 57 59 59 57 66 71 70 82 90 79 63 51 44 40 35 33 30 28 26 22 16 15 17 18 20 24 23 21 33 49 48 51 59 57 52 51 43 42 45 42 45 49 44 40 44 56 59 38 29 47 44 23 28 37 35 40 43 40 42 41 39 45 48 54 68 71 65 68 78 87 91 91 92 93 92 92 93 96 99 100 100 100 100 100 100
65 71 63 55 58 53 52 69 76 71 76 78 67 56 50 46 42 39 37 34 33 29 23 19 19 21 24 24 23 24 21 24 39 48 52 59 58 54 47 35 33 40 46 56 55 45 46 52 52 49 40 36 35 28 26 29 32 39 45 45 50 57 55 53 59 59 55 57 61 71 85 88 87 94 96 93 94 95 94 94 96 100 100 99 101 99 99 101
60 64 57 53 54 50 61 82 85 75 72 67 60 53 50 49 44 40 39 37 35 33 25 21 23 25 26 24 22 25 26 24 33 46 52 55 52 45 38 32 32 37 49 62 56 44 49 50 46 55 67 61 42 29 31 31 33 47 54 56 59 55 51 60 72 69 52 48 57 69 84 89 88 94 94 89 93 96 97 98 97 100 100 99 100 99 99 101
55 58 55 58 57 54 66 80 80 80 77 70 68 64 56 51 46 42 42 41 39 38 31 24 24 24 24 24 22 23 25 27 33 38 42 46 43 36 34 31 32 41 54 61 49 39 54 65 62 69 77 67 49 38 36 38 42 51 58 64 63 60 62 61 63 68 56 48 56 61 77 93 90 89 92 90 92 96 98 100 98 99 100 99 100 100 99 100
60 58 52 53 51 50 60 67 69 79 82 81 84 77 65 58 50 46 47 45 39 38 37 30 24 26 29 28 26 27 29 31 34 34 36 42 36 29 33 33 33 44 53 51 40 42 67 75 65 73 80 70 61 58 57 58 58 58 62 65 63 71 76 59 55 69 59 50 61 70 86 101 93 89 95 93 95 99 99 99 99 98 96 95 99 100 99 100
59 56 52 50 44 44 51 50 56 76 89 93 89 77 74 71 56 47 48 47 44 42 40 35 32 38 42 40 39 42 43 40 41 44 47 48 39 30 35 40 41 47 48 39 34 51 79 77 62 72 80 73 73 69 59 63 72 73 70 69 69 74 77 70 71 75 64 64 80 87 92 100 98 97 99 97 98 100 99 99 101 99 96 96 100 100 99 100
59 57 57 55 49 52 58 51 55 74 81 84 82 75 78 77 61 54 55 52 50 45 40 38 40 46 49 52 55 55 53 49 46 52 55 53 48 39 35 42 47 49 49 43 41 61 89 86 71 70 64 54 56 51 41 49 64 70 69 71 75 76 77 83 85 77 68 71 83 90 92 97 100 100 99 98 98 98 100 100 99 100 100 99 100 100 100 100
56 54 51 50 53 66 71 57 59 76 74 74 83 81 78 75 66 63 65 61 51 43 45 50 47 43 42 50 60 59 57 59 57 59 60 54 56 56 48 49 50 46 49 53 54 72 92 88 77 77 69 53 47 44 41 44 52 63 71 73 74 77 82 91 94 89 83 80 84 92 95 95 100 101 99 98 98 97 99 98 97 98 98 96 97 97 97 98
53 54 49 50 53 60 61 48 55 73 69 70 83 80 72 72 68 62 65 71 61 43 45 56 53 44 37 43 59 62 58 61 61 63 61 51 57 68 63 58 53 45 51 66 70 75 84 85 81 81 75 64 60 58 48 44 55 68 73 72 73 79 86 92 96 93 90 90 93 96 96 97 99 97 93 92 92 91 88 86 88 89 88 88 89 88 88 90
56 60 56 57 58 53 47 44 56 73 71 69 75 70 67 70 67 64 66 70 71 58 47 49 51 48 41 42 54 56 48 46 50 57 55 47 55 66 60 57 59 55 62 78 83 75 72 78 84 86 83 76 75 73 59 54 66 74 73 75 78 78 80 86 90 90 92 95 94 93 98 101 95 85 79 79 79 79 78 78 80 80 80 81 80 79 80 80
58 65 62 68 75 61 43 42 59 79 82 76 68 62 67 66 59 71 76 58 57 67 57 47 50 53 49 47 48 45 38 36 39 44 42 39 46 51 45 46 55 63 73 86 90 85 82 85 87 89 91 83 75 76 69 61 66 76 80 84 86 82 80 84 87 87 91 94 93 95 99 99 94 82 72 72 73 73 74 74 73 73 74 75 75 75 75 73
54 63 61 65 74 59 43 51 68 75 68 63 59 54 62 62 49 62 76 54 42 51 48 43 47 54 62 62 49 37 33 32 32 33 32 32 34 32 30 34 44 60 78 91 94 92 90 91 89 90 94 89 79 77 74 68 73 85 87 85 87 88 85 88 91 87 86 88 90 95 97 95 94 88 81 83 84 83 83 79 75 75 76 77 78 78 76 71
Wind_Speed
10 10 10 10 10 10 9 8 8 8 8 8 8 9 9 10 10 10 9 8 8 9 9 10 12 13 14 15 16 16 17 17 16 18 19 11 5 9 11 11 11 11 12 11 11 11 10 12 13 13 13 12 9 11 11 11 13 9 3 5 4 5 6 3 3 5 5 7 10 19 17 2 4 12 15 15 20 23 22 22 25 25 27 30 30 35 35 33
9 9 10 10 10 10 10 9 9 8 8 8 8 8 9 9 9 10 9 9 8 8 9 11 12 13 14 15 17 19 19 20 21 19 16 8 8 12 9 10 12 12 12 10 11 12 11 13 14 14 13 11 7 9 8 7 10 8 3 4 5 7 5 2 5 8 6 9 12 22 23 6 3 7 13 8 10 20 19 17 30 36 32 32 34 33 31 31
9 9 9 9 9 9 10 10 10 9 9 8 8 8 9 9 9 9 9 9 9 9 10 10 11 13 14 15 17 19 21 23 19 9 4 4 5 10 11 10 10 12 11 8 9 11 11 11 12 14 13 8 9 11 8 6 7 10 7 3 7 8 4 8 12 12 12 14 13 19 20 8 8 3 12 9 7 14 14 13 24 31 33 35 34 33 31 29
9 9 9 9 9 9 9 10 10 10 10 9 9 9 9 9 9 10 9 9 10 9 10 10 11 13 13 15 17 18 22 21 9 1 4 7 6 3 9 11 10 11 10 8 8 11 10 9 9 13 12 6 10 10 9 10 7 6 7 5 8 6 4 14 17 15 18 20 17 12 11 9 13 6 13 15 10 5 12 22 27 32 35 37 35 33 30 27
9 9 9 10 10 10 10 10 10 10 10 10 10 10 10 10 10 10 10 10 10 10 11 11 12 13 13 15 15 18 19 10 0 2 3 5 7 4 4 10 11 10 10 9 9 12 13 11 9 11 10 5 7 6 8 16 13 4 6 9 12 8 5 16 20 19 23 25 19 11 8 9 13 6 11 14 10 6 16 28 34 40 42 39 37 33 29 28
10 10 10 10 10 10 10 10 10 10 10 10 10 10 10 10 10 10 10 10 10 10 11 12 12 12 13 14 16 17 12 3 3 2 1 2 5 5 2 4 8 9 9 9 11 15 16 14 10 10 8 4 6 6 9 16 14 6 8 12 18 16 9 17 23 21 24 22 15 13 11 8 11 8 2 8 12 17 24 32 36 42 43 40 37 34 31 30
10 10 11 11 11 11 11 11 11 10 10 10 10 10 10 10 10 10 10 10 10 10 11 12 12 13 13 14 16 15 13 11 7 4 4 2 2 4 5 2 4 8 10 11 14 18 18 15 10 9 6 4 6 7 13 17 12 7 7 10 19 20 14 21 26 25 27 21 17 22 15 3 4 6 3 4 15 23 27 34 38 40 39 36 34 34 32 30
11 11 11 11 11 11 11 11 11 11 11 11 10 10 10 10 10 10 10 10 12 11 11 11 11 13 13 13 13 13 17 14 5 2 4 2 2 4 6 6 3 6 10 13 17 20 19 15 13 11 5 6 7 7 13 14 9 7 9 12 17 20 19 25 25 26 26 19 20 23 14 7 6 3 3 9 21 29 31 35 37 38 36 32 32 32 32 30
11 11 11 11 12 11 12 12 12 12 12 12 11 11 10 11 10 11 10 11 12 11 12 11 12 14 13 14 11 11 14 8 1 3 4 3 3 6 8 7 5 7 9 14 18 20 17 14 15 13 6 10 11 10 11 6 4 6 11 14 14 16 21 25 23 24 22 15 16 12 9 13 7 1 4 15 29 34 34 37 38 38 36 32 31 31 32 32
11 11 12 12 12 12 12 12 12 12 12 12 12 12 11 11 11 11 11 11 11 11 11 11 11 12 13 13 7 5 7 3 2 3 5 3 4 7 8 8 7 8 9 14 20 22 19 15 15 11 8 12 11 11 11 6 8 11 13 15 14 16 20 21 20 25 22 13 14 8 5 11 4 2 3 13 29 36 36 38 39 37 35 33 30 31 32 33
12 12 12 12 12 12 12 12 12 12 12 13 12 13 13 12 12 11 11 11 12 12 11 11 12 12 13 11 8 6 6 5 3 3 3 4 7 7 7 8 8 8 8 14 21 22 18 14 11 8 6 7 7 10 12 9 12 15 15 14 14 16 16 15 14 20 17 7 15 15 6 6 1 2 8 18 25 35 39 38 38 37 34 32 29 32 33 32
13 13 12 12 13 13 13 13 13 13 13 13 13 13 13 14 13 12 12 12 13 13 12 12 12 13 13 14 17 10 4 6 6 5 4 6 8 7 5 7 9 8 8 14 22 20 15 12 10 10 9 7 4 5 8 11 13 14 11 7 10 11 9 10 9 15 13 4 14 15 4 5 1 3 11 26 28 31 38 36 35 35 35 32 30 33 33 30
13 13 13 13 13 13 13 14 14 14 14 13 13 13 14 14 14 13 12 12 14 13 14 13 13 16 13 16 20 11 8 13 11 13 13 11 10 7 6 9 9 8 7 12 20 18 14 12 12 17 19 14 6 4 10 15 13 11 8 3 6 7 5 7 6 11 9 6 14 12 3 7 5 10 13 25 32 30 32 32 30 32 34 33 32 34 33 30
14 13 13 13 13 13 14 14 14 15 15 14 14 14 14 15 15 15 14 14 14 14 14 14 14 15 12 18 21 13 11 14 15 19 17 13 12 9 8 9 9 9 7 9 15 14 11 11 14 19 21 16 10 7 10 10 7 5 5 3 3 3 5 7 4 4 5 5 14 12 3 7 7 12 17 20 32 31 28 29 28 29 33 33 33 33 32 31
14 14 14 14 14 14 14 15 15 15 15 15 14 14 15 16 16 15 14 15 15 14 14 13 13 12 13 22 22 11 10 14 20 21 14 13 14 12 10 9 9 9 8 9 11 10 10 12 15 15 13 12 8 5 5 4 4 1 2 4 3 3 5 8 6 4 5 6 9 9 3 6 7 13 20 19 29 31 25 28 28 29 32 32 30 30 30 31
15 15 14 14 14 14 15 15 16 16 16 16 15 15 15 17 17 16 16 17 16 14 12 9 9 8 9 14 12 5 11 17 21 20 15 12 14 14 9 7 10 9 11 13 12 13 14 16 16 12 9 7 3 1 2 5 4 1 2 4 4 4 4 6 6 6 9 5 3 6 4 4 6 12 22 20 23 30 24 25 28 29 31 30 28 28 31 31
16 16 15 15 15 14 15 15 16 16 16 16 16 15 15 16 17 17 17 18 15 11 9 8 6 7 11 12 10 7 8 13 15 17 18 14 14 16 11 10 12 11 13 15 15 17 17 14 11 8 5 3 2 4 1 4 5 4 1 3 5 4 4 4 6 7 6 6 4 5 4 5 7 10 20 21 19 30 25 25 28 29 31 31 28 29 31 31
17 17 16 16 16 15 15 16 17 17 17 16 16 16 16 16 16 17 17 15 9 4 5 8 4 3 10 12 9 8 4 6 10 13 18 16 15 17 16 16 14 13 13 13 14 15 13 8 3 3 3 3 2 5 5 5 4 3 2 2 4 4 4 5 6 5 3 4 5 6 5 8 11 8 15 21 18 29 28 29 32 30 31 29 27 29 31 32
17 17 17 17 17 16 16 17 17 17 17 16 14 14 15 14 13 12 11 7 7 4 3 8 9 3 8 12 13 13 13 13 14 13 18 18 17 17 18 18 16 16 11 5 7 10 7 3 1 4 4 5 5 5 7 4 2 4 4 3 4 4 5 6 8 5 2 3 6 8 7 10 15 10 12 17 13 25 27 27 27 25 27 27 26 29 31 33
18 18 18 18 18 17 17 17 17 17 18 16 13 11 10 8 6 5 6 9 12 12 13 14 17 18 20 24 24 20 18 17 15 14 18 17 18 18 18 18 14 13 9 4 4 6 7 4 5 7 6 5 6 7 8 5 4 6 5 5 5 5 6 7 8 7 3 4 7 10 10 12 15 12 13 13 9 19 22 20 20 23 27 28 29 30 31 32
17 18 18 18 18 18 17 17 17 17 17 15 13 11 8 6 4 4 8 14 20 20 20 21 23 26 28 28 27 22 17 14 12 13 17 18 20 16 15 14 7 6 7 7 5 3 6 7 7 8 7 8 9 8 7 6 7 7 6 7 7 5 8 10 8 7 3 4 8 10 10 14 15 12 14 11 10 13 22 24 22 25 26 28 31 30 31 33
17 17 18 18 18 17 17 16 16 16 15 13 12 10 11 13 11 11 10 13 23 23 21 23 24 29 33 30 29 25 18 14 13 13 14 20 22 14 11 10 5 4 5 5 3 1 2 6 10 11 9 8 9 8 7 7 7 7 5 5 6 5 7 10 7 6 3 4 8 9 10 14 15 13 14 10 8 13 30 36 32 32 29 28 32 33 35 35
17 17 17 17 17 17 15 15 15 14 12 13 12 9 14 18 14 13 11 10 20 23 21 23 26 31 34 32 29 24 18 14 14 16 15 20 23 18 12 7 5 5 4 4 5 3 3 8 11 11 8 7 8 8 6 6 5 5 5 3 6 6 4 6 5 5 4 4 7 8 8 10 9 8 11 7 6 15 32 40 38 38 36 35 37 39 42 38
17 16 17 17 16 15 13 13 13 10 11 12 9 9 15 17 14 11 8 5 11 18 21 23 23 29 33 27 22 20 21 19 16 17 18 22 23 18 12 7 6 5 4 6 7 6 9 13 7 6 7 8 8 9 6 5 4 5 7 7 8 7 6 7 7 6 7 6 4 4 5 6 5 5 9 5 5 13 23 30 29 28 30 33 34 35 36 34
17 17 17 17 16 14 13 11 8 7 11 11 8 10 12 13 13 10 6 2 5 11 14 14 15 22 24 18 15 17 19 19 20 19 19 26 25 15 9 9 8 5 6 8 7 6 12 16 6 6 8 9 8 9 7 6 4 6 7 10 10 8 7 8 7 5 6 7 3 5 5 5 5 3 7 4 5 10 14 19 20 21 25 28 29 28 28 29
18 17 17 16 16 15 12 7 5 8 11 9 8 10 9 7 10 8 3 2 4 6 4 5 10 10 10 13 18 15 7 12 22 23 21 27 28 17 8 6 6 5 7 6 4 3 8 11 7 8 9 9 9 9 8 8 5 6 6 9 10 7 5 7 6 3 1 4 4 4 6 3 5 2 5 2 6 10 10 10 14 23 27 27 28 27 27 29
18 18 17 16 15 15 12 7 8 10 8 8 9 10 9 5 6 5 1 3 4 4 2 5 7 3 5 13 20 15 2 6 16 21 24 28 27 20 11 5 4 6 6 4 2 4 7 9 7 8 9 8 7 8 8 9 7 6 6 7 6 3 5 6 5 3 2 5 5 3 4 3 2 4 4 2 8 10 10 9 10 18 24 25 27 29 31 34
19 19 18 16 13 14 14 11 10 7 5 7 9 8 7 4 3 3 1 2 3 2 2 4 5 2 5 14 24 19 5 5 8 14 26 28 23 17 8 6 7 8 6 6 5 5 5 8 9 9 8 5 7 10 11 9 7 7 7 7 5 5 7 5 5 5 3 2 6 6 3 3 2 5 3 3 8 8 10 12 12 16 23 27 29 33 35 37
18 19 19 16 12 11 13 13 9 5 5 7 6 6 5 4 3 2 3 0 3 2 1 3 4 3 6 13 21 20 9 5 5 10 23 27 24 17 8 10 10 6 6 6 5 7 5 9 11 8 7 6 10 13 11 10 7 7 6 4 3 3 5 4 4 3 2 1 5 6 2 3 3 6 4 4 4 6 6 8 12 17 24 30 35 39 39 39
18 18 18 16 12 10 12 12 8 5 6 7 5 5 3 2 2 4 1 3 3 3 2 2 1 3 9 10 9 14 11 5 3 9 16 21 25 20 10 13 10 2 3 3 5 8 9 15 14 6 7 9 10 10 10 13 10 4 3 2 2 2 1 2 3 2 2 2 7 7 2 4 1 5 2 1 1 8 9 8 10 16 23 31 38 42 41 41
17 16 16 16 13 10 11 11 5 4 6 5 4 1 2 2 4 3 2 3 3 4 2 4 4 3 6 8 6 9 8 4 4 9 7 8 13 10 4 6 5 0 2 3 4 7 8 11 9 6 12 9 7 5 4 6 5 4 2 2 1 4 4 3 3 3 4 4 7 6 4 6 2 4 4 5 3 10 16 14 14 14 20 29 35 38 41 41
16 13 13 14 12 10 10 8 4 6 5 3 5 1 4 3 3 2 3 5 3 2 3 5 6 6 1 3 4 7 7 4 4 7 5 4 5 6 4 4 5 2 3 3 3 6 5 6 5 6 10 6 6 4 3 4 2 3 1 3 3 2 2 2 3 0 3 4 6 5 4 4 3 4 4 9 7 8 16 18 21 20 23 29 32 36 39 40
13 11 11 10 10 9 8 6 6 8 8 5 4 2 5 4 2 5 5 3 2 2 6 8 11 9 3 5 3 5 6 4 4 5 6 5 5 6 6 6 6 5 3 3 2 4 4 6 5 3 4 4 7 4 2 3 0 3 3 4 4 2 1 1 3 1 1 4 6 4 2 1 2 3 6 10 5 10 19 19 22 25 28 31 33 37 39 40
9 9 8 5 4 5 4 3 5 8 10 8 2 4 5 2 4 5 4 4 4 7 9 10 15 13 5 6 5 4 3 3 3 5 6 5 4 5 5 6 5 5 3 2 1 2 2 5 4 3 3 3 6 6 6 4 3 3 4 5 5 4 4 2 3 2 2 3 4 3 1 1 1 2 7 6 8 13 23 26 25 25 26 29 32 35 39 40
7 6 4 0 2 4 3 0 4 7 8 7 3 4 3 3 3 2 2 3 3 7 11 11 11 9 6 4 5 5 3 2 2 2 4 6 6 6 5 5 7 5 4 2 3 2 4 5 7 5 5 6 6 6 7 6 0 4 2 5 2 5 5 2 2 5 4 1 2 1 1 1 2 1 6 7 12 12 18 24 27 27 27 27 27 30 34 37
5 4 3 2 3 3 6 5 4 7 8 7 5 1 4 4 2 2 2 4 4 7 12 12 7 4 5 4 2 3 3 3 2 4 1 4 5 5 5 4 5 7 6 4 3 1 2 5 7 4 3 6 8 6 5 6 3 2 1 3 4 4 7 3 1 0 3 2 2 0 2 2 2 4 8 8 12 10 11 15 18 24 28 26 24 26 29 32
4 3 2 3 5 3 6 8 7 8 7 6 4 3 4 3 3 3 5 8 9 8 7 6 4 3 3 4 4 4 1 1 2 1 2 1 1 2 2 1 1 4 4 5 4 2 3 5 7 4 4 6 7 4 1 5 6 3 1 4 2 2 4 3 1 3 4 2 4 1 4 1 2 1 5 4 11 8 6 9 12 15 19 19 20 24 27 28
5 6 6 5 6 7 6 6 8 8 6 5 1 3 3 2 3 5 9 10 9 7 4 3 3 2 3 4 5 5 3 3 2 4 1 2 1 2 1 1 2 3 0 2 3 2 3 3 8 4 3 5 1 4 4 5 1 4 3 2 3 2 0 1 2 1 2 2 2 4 2 0 2 2 4 2 9 9 7 8 10 10 12 15 17 19 20 22
5 6 7 7 6 8 8 6 7 5 5 4 1 3 2 4 6 10 14 12 7 5 4 3 4 2 4 3 4 4 2 3 2 3 2 1 2 2 1 1 0 3 3 2 4 2 1 2 6 6 2 2 4 5 2 5 6 2 2 2 2 3 3 2 2 3 3 3 1 2 2 1 1 2 5 4 5 9 10 9 8 8 11 14 15 15 16 17
3 3 5 3 2 4 7 8 6 4 3 1 2 3 3 4 8 14 18 12 6 4 4 4 4 4 5 4 5 4 1 4 3 3 2 2 2 2 2 1 2 3 4 4 2 1 2 2 4 6 5 2 1 1 3 4 4 4 4 3 2 1 2 2 1 2 4 4 3 2 1 3 3 3 3 1 2 2 9 10 7 8 10 11 13 14 14 13
2 2 2 3 2 1 6 8 4 1 1 1 2 3 4 5 7 13 17 13 8 6 7 8 7 6 5 3 3 4 2 2 4 2 0 1 1 2 3 5 3 2 3 5 4 1 1 1 3 3 3 2 3 3 5 10 7 4 3 0 1 2 4 3 1 2 2 4 4 5 3 4 4 3 3 5 5 5 3 8 8 10 12 11 10 11 10 10
3 2 2 3 2 3 5 6 1 0 2 2 4 4 7 8 7 9 13 13 9 7 9 9 6 4 2 1 1 3 4 2 3 3 3 3 3 3 4 7 7 8 4 1 1 2 1 3 2 2 3 3 4 4 9 11 9 7 4 2 1 2 3 4 3 3 1 3 2 3 3 3 4 3 4 8 8 8 6 3 10 13 15 15 13 11 9 8
2 1 3 3 0 1 2 1 3 2 1 4 6 8 10 8 5 7 9 9 6 4 6 5 3 2 2 1 1 3 5 3 0 1 3 2 3 6 8 8 7 7 4 1 1 2 1 3 2 2 3 3 1 3 7 8 8 6 4 4 3 2 1 4 5 3 3 3 1 3 2 2 4 3 5 9 11 9 9 2 11 15 16 18 17 14 12 10
2 1 3 2 1 1 3 1 2 2 3 5 5 7 9 5 5 7 6 4 4 3 4 4 3 2 2 2 1 2 5 3 2 3 2 1 3 7 8 9 8 5 1 3 2 1 1 0 1 2 3 4 3 1 4 6 6 4 2 4 5 5 3 1 1 3 2 3 4 5 2 2 2 1 5 7 10 9 7 5 11 16 17 20 19 17 16 15
2 2 3 5 4 3 4 2 3 2 2 4 3 5 6 5 7 10 6 4 4 3 2 4 5 3 3 4 3 4 6 3 1 3 3 2 2 3 1 9 11 6 4 4 4 2 1 2 2 4 3 2 2 3 2 2 4 3 2 5 7 7 7 2 2 4 1 2 3 5 3 2 2 4 7 6 8 10 6 7 12 16 18 19 19 19 18 17
3 2 2 5 8 8 6 3 2 2 1 1 2 4 4 4 7 10 6 3 6 7 2 3 6 5 4 5 5 6 7 5 2 3 4 4 3 5 10 15 12 9 12 12 9 5 3 1 2 3 5 4 4 6 4 3 5 4 3 7 7 6 6 5 3 3 2 1 4 2 6 8 5 5 8 6 7 9 5 5 11 15 17 19 20 22 22 20
3 1 0 1 4 5 4 4 3 3 1 1 1 3 4 5 5 6 6 3 7 9 3 3 8 6 4 5 4 4 6 6 6 5 4 4 2 3 13 17 12 9 14 12 8 5 4 3 3 2 1 3 4 5 3 4 6 6 5 6 7 6 8 8 3 1 3 5 3 2 8 11 7 6 8 6 7 7 5 6 10 14 18 20 21 23 24 24
3 1 2 3 0 1 1 4 3 3 2 1 1 2 5 6 5 4 5 4 7 10 6 4 8 8 7 5 3 3 5 5 6 5 4 5 4 4 8 10 9 10 9 7 7 5 4 2 4 3 5 8 5 1 5 7 7 6 6 6 6 8 9 8 3 2 2 4 4 7 9 8 5 7 8 6 6 7 7 11 16 18 20 22 23 24 25 26
5 3 2 4 1 3 2 2 3 5 4 2 2 3 4 6 6 4 4 3 4 10 8 4 7 8 9 7 4 3 4 3 4 4 3 5 5 2 3 3 5 9 6 4 5 4 3 2 3 2 4 9 11 8 3 8 10 8 8 6 5 8 10 9 7 7 9 8 6 10 10 7 3 3 5 7 9 13 16 19 22 22 22 24 25 25 25 26
6 4 3 4 3 2 3 0 2 4 4 3 2 3 4 6 6 4 5 3 3 7 7 6 7 7 6 7 5 4 3 2 1 4 2 5 5 1 1 0 1 4 5 3 3 5 3 2 2 3 4 6 10 10 5 9 14 11 10 10 8 6 7 7 7 8 10 9 8 9 8 5 4 5 7 10 14 18 20 21 21 20 22 27 28 27 28 28
7 4 3 2 2 1 1 0 3 3 2 2 1 1 3 4 4 1 4 5 4 2 5 6 6 5 6 8 7 2 3 3 4 9 8 6 6 3 1 2 2 2 1 2 2 3 3 1 2 4 4 3 5 7 5 6 12 10 11 12 11 5 4 3 2 4 7 9 8 6 5 2 2 4 8 12 15 18 19 18 19 19 21 26 27 26 27 28
7 5 4 3 2 3 1 1 3 3 1 2 2 1 1 4 4 2 0 6 6 4 5 6 5 3 4 6 7 9 13 14 15 18 18 15 14 9 6 6 1 4 2 1 3 1 2 3 1 3 3 1 4 6 5 2 6 6 7 9 9 3 3 4 3 4 5 8 8 5 3 2 2 4 8 11 12 14 16 16 17 18 20 24 26 25 26 26
Wind_Direction
2 4 5 5 7 8 7 1 352 345 341 336 330 323 314 307 303 302 306 310 314 318 323 328 329 331 332 332 331 328 322 312 306 295 284 288 291 263 257 242 222 219 224 223 219 211 208 204 194 186 188 192 213 235 232 240 241 237 208 201 228 239 241 167 186 249 266 298 306 312 323 23 94 105 104 91 99 93 86 86 96 107 120 138 146 145 148 150
353 356 355 357 358 357 0 1 359 353 345 341 337 333 327 319 309 300 299 300 302 308 313 318 322 324 324 328 330 327 324 318 314 302 288 285 262 257 257 237 219 218 218 214 215 210 207 199 189 181 184 190 206 229 233 240 224 209 180 191 222 231 235 143 235 261 283 307 308 306 305 309 65 135 128 97 92 92 83 85 101 108 119 137 144 146 154 157
345 348 348 348 349 349 350 350 354 354 351 347 340 337 336 330 322 308 299 294 292 296 302 311 314 313 316 323 326 326 326 324 320 314 323 352 288 256 248 241 225 223 216 201 206 209 209 194 185 181 181 199 218 228 240 241 216 207 204 202 237 237 270 277 265 275 289 294 292 297 300 325 3 49 130 121 112 106 108 115 113 116 126 135 142 149 156 160
339 340 340 342 342 343 342 341 343 345 349 348 342 339 335 332 330 320 309 298 290 287 289 295 301 304 310 318 323 324 327 328 317 119 56 22 4 295 235 233 231 226 206 192 198 199 197 178 179 185 181 216 232 238 246 239 235 209 197 208 245 248 283 269 269 280 283 282 277 293 323 342 342 10 131 132 113 107 140 141 137 136 139 140 145 153 157 164
333 333 334 336 336 336 335 336 335 337 340 340 342 338 333 331 328 327 321 310 298 288 285 286 292 298 305 313 318 320 329 340 219 131 42 13 8 10 206 214 218 214 197 190 195 189 185 175 184 196 191 227 234 237 246 239 244 250 240 242 252 253 260 268 271 273 272 275 278 292 326 319 320 357 143 153 135 168 165 150 148 148 152 152 153 157 160 167
328 328 329 330 329 330 328 329 329 331 332 332 335 333 333 328 324 326 322 320 310 295 287 285 290 295 300 308 311 314 320 298 245 299 314 1 9 15 57 200 206 205 191 187 194 187 186 186 196 208 201 228 227 222 244 244 238 244 270 260 260 257 247 264 267 267 268 271 278 286 290 296 319 352 132 184 156 161 163 153 150 152 157 159 160 160 162 168
325 325 325 325 323 324 322 323 323 324 326 325 326 325 328 324 322 321 319 323 316 305 295 288 290 290 295 302 304 307 295 274 282 296 260 261 341 1 14 331 223 210 194 189 196 187 192 197 202 217 208 229 232 225 245 251 237 224 261 261 263 261 253 260 261 262 263 266 278 279 277 274 317 338 37 127 137 147 153 148 149 152 155 157 159 163 168 169
326 323 322 322 319 319 317 318 317 318 319 318 319 317 317 317 317 317 318 320 316 312 302 294 291 287 290 295 302 306 290 283 303 279 228 198 258 318 333 320 295 234 206 195 196 187 194 203 209 219 211 235 236 233 245 253 249 227 246 257 263 264 261 263 260 257 256 263 276 272 263 244 249 271 96 118 130 141 148 146 148 150 151 154 158 166 171 170
324 322 321 320 318 318 315 314 313 313 313 311 312 311 311 311 312 314 313 314 315 314 306 300 292 287 289 288 299 308 288 281 289 212 173 156 266 290 294 292 292 262 220 200 196 190 197 207 213 214 213 243 244 252 251 244 253 232 239 251 258 263 264 264 262 257 255 257 263 262 263 262 250 159 129 140 140 145 150 149 151 149 151 156 159 166 171 172
324 322 321 320 318 317 314 313 310 308 308 306 307 307 308 307 308 310 308 310 311 311 309 303 297 291 287 283 287 297 274 233 167 190 167 192 276 283 273 269 273 265 227 204 195 193 201 203 207 217 244 253 243 257 258 232 255 263 261 264 263 265 268 268 264 260 259 253 243 232 264 270 240 125 185 151 146 149 150 150 153 152 154 160 161 164 171 175
326 324 323 322 320 318 314 314 311 308 306 304 305 303 304 303 305 306 303 306 302 304 305 301 303 293 285 276 249 247 244 203 191 177 174 243 280 290 275 265 265 259 235 207 195 194 203 200 205 233 269 263 248 260 262 254 267 279 280 279 276 276 279 278 271 261 261 246 226 213 216 273 300 137 179 163 154 152 151 152 156 157 157 163 161 162 172 175
327 325 325 322 321 319 317 317 313 311 309 306 304 300 300 299 299 300 299 301 297 297 297 298 302 291 289 272 254 254 238 229 222 198 223 258 265 285 290 273 262 254 243 207 196 195 204 214 227 246 260 269 277 273 278 291 300 304 300 283 281 291 288 274 272 265 264 227 216 207 220 288 270 250 187 164 160 154 153 155 159 161 161 164 162 164 172 173
328 326 326 324 322 320 319 318 315 312 310 307 304 300 298 296 295 295 294 295 294 294 294 295 296 290 290 269 264 280 282 269 250 233 246 246 238 246 250 258 253 244 247 213 201 199 214 237 248 257 266 266 264 287 296 306 315 315 309 270 281 309 297 261 252 261 261 210 202 189 230 278 246 254 223 171 163 156 154 158 163 164 163 164 164 168 172 170
330 328 327 326 324 322 320 318 315 313 311 309 307 303 299 295 293 290 291 293 292 294 293 293 294 292 280 269 282 298 279 265 241 233 236 225 217 217 222 241 244 229 228 218 209 213 237 265 266 267 271 254 247 296 309 312 318 312 310 305 283 277 278 276 260 262 279 226 195 172 198 255 253 253 240 191 168 161 157 161 165 164 164 166 168 169 168 167
330 329 328 327 325 324 321 318 315 313 311 310 307 304 300 295 291 287 290 291 291 293 292 292 289 289 282 280 293 291 237 231 227 223 215 207 206 207 214 222 230 226 224 228 228 243 267 279 273 270 275 259 251 305 331 324 323 314 292 306 299 238 273 290 278 235 250 256 192 168 211 244 257 250 239 213 177 168 160 160 165 165 166 169 170 168 162 163
329 329 328 327 326 324 322 319 315 313 312 310 308 305 300 295 290 289 290 288 290 292 285 280 272 278 290 287 300 280 222 227 227 215 204 208 204 206 217 221 225 232 239 247 254 265 269 270 272 269 277 277 237 153 355 331 324 326 191 245 273 266 289 300 287 241 213 241 216 184 210 230 262 248 239 230 185 168 158 159 165 165 167 170 171 165 158 160
326 326 325 325 324 323 322 320 316 314 313 311 309 305 299 293 290 290 289 286 286 283 261 247 252 274 274 266 281 283 239 237 238 216 208 216 212 208 216 228 228 228 239 250 254 259 263 260 261 264 267 257 164 121 118 272 265 289 299 239 262 251 264 285 293 284 220 217 246 224 221 225 250 244 235 235 183 160 157 160 167 168 169 171 169 161 158 160
323 322 322 321 320 320 321 321 319 317 315 314 313 311 303 295 294 290 286 283 275 259 239 225 201 292 272 255 260 278 278 281 272 235 215 212 212 210 217 228 227 224 231 238 238 243 254 256 237 259 278 235 179 134 186 230 209 223 255 249 280 276 267 267 268 289 258 240 249 236 243 239 250 252 233 236 188 158 161 166 169 170 167 166 164 159 158 161
321 320 319 317 316 317 318 320 320 319 317 316 317 313 306 303 303 293 282 257 197 173 257 217 193 218 275 271 266 273 288 301 301 260 220 209 210 212 219 228 230 226 221 214 226 224 221 251 259 238 250 230 217 188 206 228 163 216 249 225 249 278 271 262 257 261 224 253 260 236 233 234 242 245 237 244 196 156 160 164 165 163 160 161 161 159 159 164
318 317 315 314 315 315 316 318 317 318 318 318 323 322 320 325 324 304 284 252 237 260 277 253 238 245 262 272 270 277 287 292 291 247 213 206 209 211 217 224 229 224 205 160 210 215 188 203 242 227 224 222 230 230 222 232 236 249 279 267 257 266 268 267 267 268 207 198 252 236 227 234 234 235 238 233 159 139 147 152 159 159 160 162 160 160 162 167
316 314 313 313 313 314 315 314 312 315 316 316 322 324 327 344 339 325 316 289 277 277 272 267 261 254 260 266 264 275 291 292 285 240 211 206 206 207 215 214 208 215 206 181 189 208 180 204 239 227 217 218 224 230 224 230 243 247 259 269 274 266 267 270 267 271 216 178 255 238 219 239 231 227 239 210 136 137 151 155 167 166 162 163 159 158 163 168
315 312 312 312 311 313 311 309 308 308 309 305 308 317 333 344 330 313 318 297 288 286 275 271 265 257 262 263 259 266 275 275 274 256 220 203 201 200 199 194 177 204 216 176 168 249 216 231 242 229 214 214 230 233 218 224 237 243 247 263 273 264 272 277 268 262 202 167 266 243 207 236 231 221 237 210 152 161 163 164 171 166 161 161 158 158 163 167
315 314 313 312 312 314 310 306 304 299 297 292 296 327 353 360 350 318 307 287 289 288 273 262 255 252 256 257 255 253 248 246 251 254 231 196 193 194 184 179 184 200 202 172 181 198 238 249 235 224 211 203 237 245 226 235 244 238 239 250 261 256 267 284 285 287 272 227 245 230 204 233 237 229 249 233 164 168 170 170 171 167 163 163 163 164 165 163
317 316 314 314 315 315 313 306 299 294 290 284 290 340 1 10 12 341 310 275 287 284 271 263 252 251 252 251 250 233 222 228 232 244 231 194 187 189 186 186 185 198 204 191 191 190 235 251 223 187 206 204 229 249 233 231 253 245 228 227 245 249 240 253 278 307 318 298 242 167 179 242 258 228 251 268 130 159 171 168 166 164 161 161 162 162 160 158
319 318 315 317 317 317 318 307 298 294 285 278 290 326 348 7 8 345 319 302 290 280 278 266 238 246 252 245 236 215 210 223 226 233 222 197 189 182 188 193 182 212 216 196 195 200 243 253 217 170 213 210 217 244 228 194 230 260 235 221 222 223 231 250 285 331 354 323 307 110 145 250 300 223 236 285 98 144 167 161 154 152 154 155 152 153 154 153
321 319 319 319 317 322 322 309 313 306 289 281 287 302 314 351 4 341 309 24 305 263 266 225 208 234 238 213 208 198 196 230 227 230 218 201 196 184 183 191 176 213 210 193 201 203 244 248 204 189 215 212 214 241 230 181 196 255 236 210 195 188 236 273 302 340 23 281 282 101 137 218 318 305 225 247 103 135 157 154 147 150 153 151 146 147 149 151
322 321 321 320 320 324 323 322 328 317 305 295 277 281 295 319 8 341 284 26 305 237 166 186 192 200 201 190 182 171 165 232 218 226 212 198 197 190 185 187 178 210 199 164 207 220 232 237 218 203 212 212 213 240 227 177 176 243 235 205 191 201 258 274 291 281 232 264 300 9 103 121 311 274 226 153 99 122 146 146 142 146 147 143 141 143 146 153
323 321 321 321 321 320 316 323 333 328 317 305 278 270 295 314 339 336 108 45 295 216 129 190 193 220 203 179 172 173 190 161 171 220 208 194 194 190 186 193 188 210 199 159 212 250 220 219 225 208 206 210 210 230 221 177 185 237 224 205 211 233 244 254 272 273 281 304 307 317 42 85 276 273 298 52 88 116 145 148 145 144 143 139 138 142 149 156
322 321 320 318 318 310 306 314 327 325 302 303 286 263 292 318 303 17 91 196 305 331 313 183 181 208 171 163 177 192 205 163 152 207 196 189 194 195 199 212 202 216 218 170 207 260 251 238 241 209 194 209 217 230 210 174 204 232 204 196 214 229 240 255 249 254 347 319 263 280 359 80 274 287 330 17 87 130 141 140 145 143 140 138 139 145 152 157
318 320 317 312 314 302 297 312 319 297 283 298 301 260 271 348 59 60 87 242 293 305 298 127 192 200 157 151 187 208 213 213 153 162 176 184 193 196 202 215 210 204 244 219 231 255 265 266 264 228 209 209 203 219 193 181 203 199 149 181 274 298 326 300 259 141 98 253 253 251 200 120 281 293 285 300 141 141 131 129 143 139 135 138 143 149 155 158
316 318 312 304 307 296 294 314 310 251 269 313 347 263 196 55 64 96 217 271 297 276 348 28 318 303 158 162 186 202 212 227 142 132 158 181 187 195 195 210 213 98 325 310 278 276 279 271 268 231 226 209 176 212 204 188 190 143 125 124 269 314 14 13 331 75 127 243 260 237 167 117 149 272 273 293 268 152 144 148 152 143 139 143 147 152 157 161
318 314 302 294 298 296 295 303 256 228 248 308 355 38 141 67 33 191 244 322 331 249 19 358 317 333 296 210 189 186 196 216 166 139 155 159 169 200 197 187 188 187 283 280 273 296 292 259 259 239 228 184 143 229 294 360 40 131 149 91 106 290 357 359 301 212 179 238 256 230 143 112 211 246 308 321 305 166 153 156 153 147 147 148 150 153 158 162
323 306 290 286 297 305 302 289 237 215 222 249 310 17 98 87 232 226 245 291 324 353 350 333 327 335 289 247 246 191 192 207 189 165 167 160 170 202 218 214 172 142 213 228 248 288 293 287 290 275 246 161 134 168 260 326 14 158 182 139 141 177 124 281 270 282 239 238 265 265 158 185 265 305 329 333 340 140 139 137 139 144 148 150 151 154 158 163
327 298 287 286 319 340 325 276 218 207 219 231 284 54 96 135 235 236 244 256 287 324 333 336 330 326 288 231 211 169 186 226 193 161 165 156 166 200 231 236 196 140 153 216 245 204 226 294 278 217 242 186 151 175 185 178 175 201 192 146 151 162 151 214 225 198 231 245 292 308 144 173 163 291 309 354 56 111 125 124 130 140 145 145 150 156 162 168
328 295 300 252 86 32 21 219 192 194 200 194 106 71 146 200 256 246 253 275 304 323 327 334 328 315 306 261 202 157 150 211 353 45 171 168 169 190 201 220 214 171 133 179 247 189 179 247 251 232 221 189 188 206 169 127 156 249 167 110 169 190 157 158 177 173 177 157 336 351 106 321 144 279 327 55 78 86 108 120 130 140 145 147 154 162 167 175
336 303 320 153 159 65 57 78 137 160 157 137 98 88 208 213 235 229 288 325 341 340 334 337 340 319 318 315 247 209 155 143 30 7 281 189 179 192 192 203 211 182 158 174 219 206 179 250 277 295 268 213 203 209 166 145 172 261 108 154 215 179 132 126 238 62 89 121 279 24 106 335 45 14 347 53 87 82 96 116 131 144 153 157 163 170 174 181
360 348 20 155 172 137 88 78 97 128 125 99 105 209 227 226 243 265 317 326 324 331 338 338 335 317 319 340 333 318 344 111 133 114 319 288 221 244 230 261 148 162 188 193 206 240 199 252 286 291 293 264 214 197 217 176 152 127 207 211 205 69 89 112 153 14 51 145 264 9 117 183 78 42 311 46 94 95 106 124 134 149 157 160 165 174 179 184
25 49 73 113 148 155 138 95 94 108 89 72 90 248 235 251 291 304 309 313 317 321 327 301 271 275 327 333 335 338 322 281 203 164 182 353 298 270 244 289 76 95 30 177 178 249 188 236 287 276 267 291 311 69 2 310 231 155 197 189 118 97 280 91 119 132 105 154 281 352 51 92 100 155 248 184 125 127 126 130 141 155 160 160 166 174 179 182
16 57 83 93 112 141 149 134 119 103 66 71 239 273 250 260 284 292 293 297 299 297 290 253 235 275 323 298 295 325 283 230 226 189 182 137 249 250 168 284 324 81 45 93 155 234 140 179 281 292 273 314 16 50 48 317 321 358 22 3 92 137 163 174 151 154 148 149 227 336 22 314 249 212 239 230 149 138 142 145 153 160 163 162 162 167 174 179
360 60 100 108 84 122 145 155 148 112 73 130 208 239 263 279 286 290 294 298 296 291 276 263 269 288 294 277 273 293 228 176 186 201 211 185 211 249 205 210 347 17 19 43 98 256 30 145 241 293 320 42 28 307 115 74 2 6 36 15 332 56 111 142 161 134 129 139 169 168 181 256 269 284 263 220 41 146 155 148 145 143 144 152 156 159 165 167
58 78 130 176 240 220 154 164 171 119 131 211 233 234 271 286 283 292 303 314 312 291 273 268 264 254 262 286 299 308 313 197 166 142 126 181 198 270 212 177 128 43 7 23 37 351 359 130 194 287 333 94 182 214 103 90 80 62 67 76 244 162 126 125 246 283 105 128 160 157 177 258 281 322 358 65 35 318 197 144 130 119 114 123 139 145 150 152
89 88 134 150 221 244 171 166 216 41 162 272 301 301 317 313 295 300 314 323 317 288 279 279 267 250 258 279 334 346 339 291 171 148 154 173 199 228 212 183 140 115 112 31 316 259 177 105 115 266 252 185 175 139 102 96 91 76 50 351 13 97 110 127 189 240 90 97 119 115 124 259 289 343 46 69 47 349 313 142 116 103 100 105 114 123 133 144
41 93 131 124 321 321 125 118 345 344 241 322 327 316 322 321 298 303 316 328 329 295 293 305 314 338 345 309 343 360 344 329 143 131 131 143 217 212 194 176 140 115 115 147 288 296 17 73 45 298 294 308 287 103 83 74 71 64 18 351 19 359 205 155 171 178 143 142 123 87 109 239 285 345 70 87 74 30 339 8 108 101 96 98 103 110 115 124
1 111 129 128 289 352 93 125 314 313 295 324 338 319 317 307 284 300 311 316 309 293 292 299 308 322 306 297 331 10 354 359 41 38 56 121 237 229 193 147 112 84 97 162 181 275 344 50 48 48 18 347 316 322 46 54 67 74 328 339 11 8 4 116 125 84 114 197 149 127 160 234 274 9 84 93 92 74 6 16 97 100 95 93 98 106 109 118
37 92 96 91 97 92 87 125 185 198 287 320 330 317 316 308 304 314 312 274 276 290 279 288 311 340 351 350 16 30 19 16 26 12 7 6 330 301 150 104 93 81 83 103 116 110 134 174 100 98 130 175 215 222 208 111 93 86 344 360 19 19 18 25 108 82 84 266 84 105 159 158 94 97 112 111 102 94 56 45 85 98 102 101 102 104 108 115
67 72 84 80 78 78 72 67 110 147 197 352 347 318 312 310 315 327 338 328 323 332 311 296 339 6 12 13 38 33 13 4 25 48 19 359 356 7 41 59 69 92 92 76 71 85 100 103 83 120 161 181 196 209 209 135 103 107 59 29 25 19 28 56 87 86 142 112 43 63 140 127 112 102 109 110 101 97 86 82 94 100 108 110 106 105 107 112
85 63 149 66 41 46 38 26 64 107 174 150 97 316 307 306 310 335 359 345 322 333 353 22 15 27 7 4 55 34 354 359 28 40 11 351 326 16 45 49 44 70 88 74 60 83 90 36 2 14 343 277 226 193 155 106 110 127 115 66 45 38 43 56 49 327 151 116 74 149 136 125 132 127 115 120 118 112 120 124 111 104 106 108 106 105 107 112
70 77 92 91 68 242 28 23 69 93 60 114 121 316 314 324 335 354 345 302 319 353 21 24 14 29 18 13 83 46 353 7 20 8 356 358 338 355 41 49 32 38 67 72 55 78 106 40 334 1 6 341 331 54 95 100 101 98 105 98 82 75 73 74 43 328 127 123 141 147 126 109 117 121 116 127 126 114 111 110 107 105 105 106 103 100 101 106
62 68 67 66 49 216 176 54 80 83 45 21 16 341 329 338 349 358 337 308 343 3 23 34 1 10 22 29 76 68 25 33 5 337 343 355 344 357 30 23 19 21 28 66 54 49 106 74 335 26 43 10 5 357 23 101 96 72 62 54 60 85 93 90 79 71 74 75 100 117 103 80 48 52 85 97 101 103 100 99 100 102 104 104 100 96 94 98
61 42 357 23 12 249 197 144 77 81 27 9 29 350 335 344 357 360 335 347 18 351 3 36 9 354 17 30 57 89 72 64 312 278 299 347 336 7 70 261 91 21 10 56 31 352 42 81 335 42 60 17 13 353 346 98 96 73 46 21 12 55 87 90 97 98 81 66 79 94 89 66 9 9 60 83 94 96 91 88 90 94 99 100 97 93 93 94
80 54 8 22 9 322 188 82 74 94 18 355 35 346 335 336 359 43 303 333 47 359 331 16 18 356 5 14 25 23 326 327 274 263 267 280 280 272 304 279 185 120 28 92 72 353 26 54 352 54 64 355 4 343 318 95 89 65 35 8 348 2 91 102 118 123 118 118 114 97 89 93 356 16 57 64 74 80 76 76 82 84 90 95 93 91 92 94
82 73 62 90 56 4 15 68 55 69 24 298 280 283 270 293 322 67 318 327 6 13 347 14 33 19 4 354 339 318 313 310 298 289 285 275 272 283 294 285 280 104 121 102 84 90 122 113 68 69 93 319 329 316 295 47 65 44 16 348 321 294 119 90 56 60 101 130 138 140 136 102 37 52 68 58 57 62 60 67 81 84 85 88 90 91 93 95